TimeMDT,TemperatureF,Dew PointF,Humidity,Sea Level PressureIn,VisibilityMPH,Wind Direction,Wind SpeedMPH,Gust SpeedMPH,PrecipitationIn,Events,Conditions,WindDirDegrees,DateUTC
12:52 AM,34.0,10.9,38,29.93,10.0,WSW,4.6,-,N/A,,Partly Cloudy,240,2013-03-27 06:52:00
1:52 AM,34.0,12.9,42,29.91,10.0,WSW,8.1,-,N/A,,Mostly Cloudy,240,2013-03-27 07:52:00
2:52 AM,37.0,17.1,44,29.88,10.0,West,5.8,-,N/A,,Mostly Cloudy,260,2013-03-27 08:52:00
3:52 AM,39.0,19.0,45,29.88,10.0,West,10.4,-,N/A,,Overcast,270,2013-03-27 09:52:00
4:52 AM,35.1,18.0,50,29.93,10.0,Calm,Calm,-,N/A,,Mostly Cloudy,0,2013-03-27 10:52:00
5:52 AM,28.9,15.1,56,29.96,10.0,WSW,8.1,-,N/A,,Partly Cloudy,240,2013-03-27 11:52:00
6:52 AM,27.0,15.1,61,30.03,10.0,NE,3.5,-,N/A,,Clear,40,2013-03-27 12:52:00
7:52 AM,30.9,16.0,54,30.04,10.0,SSW,5.8,-,N/A,,Clear,200,2013-03-27 13:52:00
8:52 AM,39.9,17.1,40,30.05,10.0,SSW,3.5,-,N/A,,Clear,210,2013-03-27 14:52:00
9:52 AM,44.1,18.0,35,30.05,10.0,Calm,Calm,-,N/A,,Clear,0,2013-03-27 15:52:00
10:52 AM,48.9,17.1,28,30.02,10.0,Variable,6.9,-,N/A,,Clear,0,2013-03-27 16:52:00
11:52 AM,52.0,14.0,22,30.00,10.0,Variable,4.6,-,N/A,,Clear,0,2013-03-27 17:52:00
12:52 PM,54.0,12.0,19,29.96,10.0,Calm,Calm,-,N/A,,Partly Cloudy,0,2013-03-27 18:52:00
1:52 PM,59.0,8.1,13,29.90,10.0,South,11.5,25.3,N/A,,Partly Cloudy,190,2013-03-27 19:52:00
2:52 PM,60.1,3.9,11,29.86,10.0,WSW,19.6,25.3,N/A,,Partly Cloudy,240,2013-03-27 20:52:00
3:52 PM,57.9,5.0,12,29.86,10.0,WSW,6.9,18.4,N/A,,Partly Cloudy,240,2013-03-27 21:52:00
4:31 PM,59.0,5.0,12,30.03,10.0,WSW,13.8,28.8,N/A,,Partly Cloudy,240,2013-03-27 22:31:00
4:52 PM,59.0,3.9,11,29.88,10.0,WSW,13.8,23.0,N/A,,Partly Cloudy,240,2013-03-27 22:52:00
5:52 PM,57.0,6.1,13,29.93,10.0,WSW,15.0,-,N/A,,Clear,240,2013-03-27 23:52:00
6:52 PM,53.1,7.0,16,29.97,10.0,WSW,13.8,-,N/A,,Clear,250,2013-03-28 00:52:00
7:52 PM,48.0,7.0,19,30.00,10.0,WSW,11.5,-,N/A,,Clear,240,2013-03-28 01:52:00
8:52 PM,43.0,7.0,23,30.00,10.0,SW,8.1,-,N/A,,Clear,230,2013-03-28 02:52:00
9:52 PM,39.0,8.1,28,30.02,10.0,WSW,3.5,-,N/A,,Clear,250,2013-03-28 03:52:00
10:52 PM,37.0,8.1,30,30.02,10.0,WSW,4.6,-,N/A,,Clear,250,2013-03-28 04:52:00
11:52 PM,35.1,9.0,34,30.02,10.0,West,5.8,-,N/A,,Clear,280,2013-03-28 05:52:00